Location: Churchill Northern Studies Centre
(58.7378°N, 93.8201°W)
Time: 22:30:24
(UTC-06:00)

Vanguard 1 Rocket - Visible Passes

Search period start: 13 December 2017 00:00
Search period end: 23 December 2017 00:00
Orbit: 656 x 4222 km, 34.3° (Epoch: 13 December)

Date Brightness Start Highest point End Pass type
(mag) Time Alt. Az. Time Alt. Az. Time Alt. Az.
13 Dec 10.9 16:31:08 10° S 16:37:14 15° SE 16:45:11 10° ESE visible
13 Dec 10.7 18:50:34 10° SW 19:01:15 28° SSE 19:11:26 19° SE visible
13 Dec 10.9 21:14:12 10° WSW 21:27:22 28° SSW 21:28:43 28° S visible
13 Dec 11.4 23:42:17 10° WSW 23:46:00 14° WSW 23:46:00 14° WSW visible
14 Dec 10.7 17:41:17 10° SSW 17:49:58 23° SSE 18:02:56 10° ESE visible
14 Dec 10.8 20:03:26 10° SW 20:15:13 29° S 20:21:34 25° SSE visible
14 Dec 11.2 22:29:09 10° WSW 22:38:52 21° SW 22:38:52 21° SW visible
15 Dec 10.8 16:33:03 10° S 16:39:16 16° SE 16:47:41 10° ESE visible
15 Dec 10.7 18:53:20 10° SW 19:03:28 27° S 19:14:29 16° SE visible
15 Dec 11.0 21:17:22 10° WSW 21:29:29 25° SSW 21:31:47 25° S visible
15 Dec 11.5 23:47:26 10° WSW 23:49:05 11° WSW 23:49:05 11° WSW visible
16 Dec 10.7 17:43:53 10° SSW 17:52:12 23° SSE 18:04:43 10° ESE visible
16 Dec 10.8 20:06:29 10° SW 20:17:27 27° S 20:24:47 21° SSE visible
16 Dec 11.3 22:33:01 10° WSW 22:42:04 18° SW 22:42:04 18° SW visible
17 Dec 10.7 16:35:19 10° S 16:41:27 17° SSE 16:49:57 10° ESE visible
17 Dec 10.7 18:56:16 10° SW 19:05:46 26° S 19:17:50 13° SE visible
17 Dec 11.1 21:20:49 10° WSW 21:31:38 22° SSW 21:35:09 21° S visible
18 Dec 10.6 17:46:40 10° SSW 17:54:31 23° SSE 18:06:21 10° ESE visible
18 Dec 10.9 20:09:43 10° WSW 20:19:45 24° S 20:28:19 17° SSE visible
18 Dec 11.4 22:37:51 10° WSW 22:45:39 14° SW 22:45:39 14° SW visible
19 Dec 10.6 16:37:50 10° SSW 16:43:45 18° SSE 16:52:01 10° ESE visible
19 Dec 10.7 18:59:21 10° SW 19:08:09 24° S 19:21:21 10° SE visible
19 Dec 11.2 21:24:42 10° WSW 21:33:50 18° SSW 21:38:57 16° S visible
20 Dec 10.6 17:49:37 10° SW 17:56:57 21° S 18:07:50 10° SE visible
20 Dec 11.0 20:13:13 10° SW 20:22:06 20° SSW 20:32:23 13° SSE visible
21 Dec 10.6 16:40:35 10° SSW 16:46:10 17° SSE 16:53:56 10° SE visible
21 Dec 10.8 19:02:39 10° SW 19:10:37 21° S 19:22:11 10° SE visible
21 Dec 11.3 21:29:29 10° SW 21:36:06 14° SSW 21:43:23 11° S visible
22 Dec 10.7 17:52:45 10° SW 17:59:27 20° S 18:09:08 10° SE visible
22 Dec 11.1 20:17:11 10° SW 20:24:31 16° SSW 20:34:13 10° SSE visible
